Probability
0 0 0 0 0 0 0 0 0 0 0 0 0 0 0 0 0 0 0 0 1 2 3 4 5 4 1 0 0 0 0 0 1 0 0 0 0 0 0 0 0 0 0
0 0 0 0 0 0 0 0 0 0 0 0 0 0 0 0 0 0 0 0 0 1 2 4 5 4 1 0 0 0 0 0 1 0 0 0 0 0 0 0 0 0 0
0 0 0 0 0 0 0 0 0 0 0 0 0 0 0 0 0 0 0 0 0 0 1 2 4 4 2 0 0 0 0 0 1 1 0 0 0 0 0 0 0 0 0
0 0 0 0 0 0 0 0 0 0 0 0 0 0 0 0 0 0 0 0 0 0 0 1 3 3 1 0 0 0 0 0 1 1 0 0 0 0 0 0 0 0 0
0 0 0 0 0 0 0 0 0 0 0 0 0 0 0 0 0 0 0 0 0 0 0 0 1 1 0 0 0 0 0 1 1 1 0 0 0 0 0 0 0 0 0
0 0 0 0 0 0 0 0 0 0 0 0 0 0 0 0 0 0 0 0 0 0 0 0 0 0 0 0 0 0 0 1 1 0 0 1 1 0 0 0 0 0 0
0 0 0 0 0 0 0 0 0 0 0 0 0 0 0 0 0 0 0 0 0 0 0 0 0 0 0 0 0 0 0 1 1 2 2 2 2 1 1 1 1 1 1
0 0 0 0 0 0 0 0 0 0 0 0 0 0 0 0 0 0 0 0 0 0 0 0 0 0 0 0 0 0 0 0 2 3 3 3 3 3 2 2 2 2 2
0 0 0 0 0 0 0 0 0 0 0 0 0 0 0 0 0 0 0 0 0 0 0 0 0 0 0 0 0 0 0 0 1 2 3 3 3 3 3 3 3 3 3
0 0 0 0 0 0 0 0 0 0 0 0 0 0 0 0 0 0 0 0 0 0 0 0 0 0 0 0 0 0 0 0 0 1 1 2 3 3 3 3 3 3 3
0 0 0 0 0 0 0 0 0 0 0 0 0 0 0 0 0 0 0 0 0 0 0 0 0 0 0 0 0 0 0 0 0 0 0 1 2 2 3 3 3 2 2
0 0 0 0 0 0 0 0 0 0 0 0 0 0 0 0 0 0 0 0 0 0 0 0 0 0 0 0 0 0 0 0 0 0 0 0 1 1 1 2 1 1 1
0 0 0 0 0 0 0 0 0 0 0 0 0 0 0 0 0 0 0 0 0 0 0 0 0 0 0 0 0 0 0 0 0 0 0 0 0 0 0 0 0 0 0
0 0 0 0 0 0 0 0 0 0 0 0 0 0 0 0 0 0 0 0 0 0 0 0 0 0 0 0 0 0 0 0 0 0 0 0 0 0 0 0 0 0 0
0 0 0 0 0 0 0 0 0 0 0 0 0 0 0 0 0 0 0 0 0 0 0 0 0 0 0 0 0 0 0 0 0 0 0 0 0 0 0 0 0 0 0
0 0 0 0 0 0 0 0 0 0 0 0 0 0 0 0 0 0 0 0 0 0 0 0 0 0 0 0 0 0 0 0 0 0 0 0 0 0 0 0 0 0 0
0 0 0 0 0 0 0 0 0 0 0 0 0 0 0 0 0 0 0 0 0 0 0 0 0 0 0 0 0 0 0 0 0 0 0 0 0 0 0 0 0 0 0
0 0 0 0 0 0 0 0 0 0 0 0 0 0 0 0 0 0 0 0 0 0 0 0 0 0 0 0 0 0 0 0 0 0 0 0 0 0 0 0 0 0 0
0 0 0 0 0 0 0 0 0 0 0 0 0 0 0 0 0 0 0 0 0 0 0 0 0 0 0 0 0 0 0 0 0 0 0 0 0 0 0 0 0 0 0
0 0 0 0 0 0 0 0 0 0 0 0 0 0 0 0 0 0 0 0 0 0 0 0 0 0 0 0 0 0 0 0 0 0 0 0 0 0 0 0 0 0 0
0 0 0 0 0 0 0 0 0 0 0 0 0 0 0 0 0 0 0 0 0 0 0 0 0 0 0 0 0 0 0 0 0 0 0 0 0 0 0 0 0 0 0
0 0 0 0 0 0 0 0 0 0 0 0 0 0 0 0 0 0 0 0 0 0 0 0 0 0 0 0 0 0 0 0 0 0 0 0 0 0 0 0 0 0 0
0 0 0 0 0 0 0 0 0 0 0 0 0 0 0 0 0 0 0 0 0 0 0 0 0 0 0 0 0 0 0 0 0 0 0 0 0 0 0 0 0 0 0
0 0 0 0 0 0 0 0 0 0 0 0 0 0 0 0 0 0 0 0 0 0 0 0 0 0 0 0 0 0 0 0 0 0 0 0 0 0 0 0 0 0 0
0 0 0 0 0 0 0 0 0 0 0 0 0 0 0 0 0 0 0 0 0 0 0 0 0 0 0 0 0 0 0 0 0 0 0 0 0 0 0 0 0 0 0
0 0 0 0 0 0 0 0 0 0 0 0 0 0 0 0 0 0 0 0 0 0 0 0 0 0 0 0 0 0 0 0 0 0 0 0 0 0 0 0 0 0 0
Wind_Speed
2 1 1 1 1 1 1 1 1 1 1 1 1 1 1 1 1 1 1 4 4 3 3 3 3 3 3 3 3 3 3 3 2 3 3 4 4 4 5 5 5 5 5
2 2 1 1 1 1 1 1 1 0 0 0 1 1 1 1 1 1 1 2 4 4 4 4 4 3 3 3 3 3 4 3 3 3 4 4 5 5 5 6 6 6 6
3 2 2 1 1 1 1 1 1 1 1 1 1 1 1 1 1 1 1 1 2 3 4 5 5 4 4 4 4 4 4 4 4 4 4 5 6 6 6 6 6 6 6
3 2 2 1 1 1 1 1 1 1 0 1 1 1 1 1 1 1 1 1 1 1 3 4 5 5 5 5 5 5 5 5 5 5 5 6 6 6 6 7 7 7 7
3 2 2 2 2 1 1 1 1 1 1 0 1 1 1 1 1 1 1 1 1 1 1 3 4 5 6 6 6 5 6 6 6 6 6 7 7 7 7 7 7 8 8
3 3 2 2 2 1 1 1 1 1 1 1 1 1 2 1 1 1 1 1 1 1 1 1 1 3 5 6 6 6 7 7 7 7 7 8 8 8 8 8 8 8 9
4 3 2 2 2 2 2 2 1 1 1 0 1 2 2 2 1 1 1 1 1 1 1 1 1 1 2 5 6 7 8 8 8 8 8 9 9 9 9 9 9 9 9
4 3 3 3 3 2 2 2 2 1 0 1 1 1 2 3 2 2 1 1 2 1 1 1 1 1 2 2 5 8 9 9 9 9 9 9 9 9 9 9 10 10 10
4 3 3 3 3 3 3 3 3 3 2 1 1 2 1 2 3 2 2 2 1 1 2 2 2 2 2 2 3 6 8 9 9 10 9 9 9 9 9 10 10 10 10
3 3 3 3 3 3 3 3 3 2 3 2 1 1 2 2 1 3 2 2 2 2 3 2 2 3 3 2 3 6 8 9 9 9 10 10 9 9 9 10 10 10 9
3 3 3 3 3 3 3 3 3 3 3 3 3 2 1 1 1 2 4 3 3 2 3 3 3 3 3 3 3 5 8 9 9 9 9 10 10 10 10 10 10 9 9
2 3 3 3 3 3 3 3 4 4 4 3 3 2 2 2 2 2 3 4 4 3 3 3 3 3 3 3 4 7 8 9 9 9 9 9 10 10 10 10 10 9 9
2 2 2 3 3 3 3 3 3 3 4 4 4 3 3 3 2 2 2 3 4 3 3 2 3 2 3 2 3 7 8 9 9 9 9 9 9 10 10 10 9 9 9
2 2 3 3 3 3 3 3 3 3 3 4 4 4 3 3 3 3 3 2 3 3 3 4 2 2 2 2 5 7 5 9 9 10 9 9 9 9 9 9 9 9 9
2 2 2 2 2 2 3 3 3 3 3 4 4 4 3 3 3 3 2 3 3 4 5 3 2 2 2 2 5 4 4 8 10 10 9 9 9 9 9 9 9 9 9
1 2 2 2 2 2 3 2 2 3 3 3 3 3 4 3 3 3 3 3 3 4 5 3 3 3 3 4 6 5 5 9 9 10 9 9 9 9 9 9 9 10 10
2 2 2 2 2 3 2 2 3 3 3 3 3 4 5 4 3 3 3 3 3 3 6 5 3 3 3 4 4 4 4 4 5 9 9 9 9 9 9 9 9 10 10
1 2 2 2 2 3 3 3 3 3 3 4 4 4 4 3 4 3 3 4 4 4 4 6 4 3 4 4 4 5 4 4 4 8 9 9 9 9 9 9 9 9 9
1 1 1 2 2 3 3 3 3 3 3 4 4 4 4 4 4 4 4 4 3 3 4 4 5 3 3 3 3 4 5 4 4 6 8 9 9 9 9 9 8 8 8
1 1 2 2 2 3 3 3 3 3 3 3 4 4 4 4 4 4 3 4 3 3 3 4 4 4 3 3 2 3 5 4 4 4 6 6 8 8 8 8 8 8 9
1 1 2 2 2 2 3 3 3 3 3 3 3 3 3 4 5 4 3 3 3 3 3 3 4 4 3 3 3 3 5 5 5 3 3 4 4 4 4 7 8 8 9
1 1 1 2 2 2 4 4 3 3 3 3 3 3 3 3 5 6 6 6 5 4 4 4 4 5 5 4 3 3 4 4 5 2 3 5 3 4 4 4 8 9 9
1 1 1 2 2 3 4 4 4 2 2 2 3 3 3 3 4 4 5 6 6 7 7 5 6 6 6 5 4 5 5 5 6 4 3 5 3 5 4 5 10 10 9
1 1 1 2 3 3 4 4 4 2 2 2 3 3 3 4 3 3 3 3 4 4 6 5 5 6 6 5 5 5 6 5 5 3 3 4 4 4 4 4 9 9 9
1 1 2 2 2 4 5 4 4 2 1 2 3 3 3 4 5 4 3 4 4 4 5 6 7 7 7 7 5 2 2 3 4 4 2 3 3 4 4 4 5 7 8
1 2 2 2 2 3 4 4 4 1 2 2 2 3 4 4 5 5 3 3 4 4 3 4 5 5 5 4 5 3 3 3 3 4 2 2 3 2 4 3 3 3 5
Wind_Direction
142 139 129 122 128 124 133 117 82 47 18 358 18 39 25 12 351 347 338 345 340 340 340 335 335 344 341 340 339 332 326 314 311 313 311 313 314 313 315 310 312 300 298
145 151 147 154 179 179 165 158 157 148 35 28 16 11 358 335 324 329 329 338 344 347 342 340 339 339 339 336 331 326 326 319 314 309 309 309 307 309 308 310 309 301 300
146 148 154 172 199 185 160 136 112 84 61 31 4 340 339 327 314 312 323 327 332 347 348 339 335 332 330 330 326 325 326 323 321 318 314 309 306 302 301 298 298 301 301
155 151 155 179 185 164 156 153 141 116 65 18 336 325 326 322 319 318 332 326 327 334 335 340 341 339 330 323 322 319 316 315 313 314 315 315 311 305 301 294 296 294 294
164 159 170 180 168 156 161 176 158 154 165 322 306 312 313 300 289 328 319 303 309 313 319 336 342 343 334 320 316 313 312 311 307 306 307 304 301 298 299 299 297 293 292
175 168 168 173 164 158 172 177 173 149 162 199 306 318 306 292 272 268 280 286 291 298 321 329 330 328 329 322 314 310 310 308 305 301 300 300 297 294 292 293 295 296 295
176 174 174 174 173 179 191 178 159 140 104 94 41 337 322 304 290 278 278 277 284 299 313 295 303 303 307 314 312 308 306 304 303 301 299 296 294 293 291 291 294 295 294
182 184 181 183 180 175 171 169 148 150 152 134 129 48 326 320 301 284 289 271 269 291 295 294 270 289 291 291 302 306 304 303 302 301 298 296 292 291 290 292 294 294 294
189 188 187 181 179 178 193 194 176 164 183 204 158 151 172 251 303 295 267 267 266 266 277 291 287 287 285 286 292 304 307 305 303 300 297 295 291 291 291 293 292 294 296
191 192 187 184 186 189 196 202 191 178 171 200 226 215 200 189 215 295 299 290 283 275 271 281 278 277 274 271 282 297 301 304 303 301 299 299 295 291 292 294 294 295 298
197 195 192 190 194 197 204 202 197 193 188 196 198 197 210 231 217 226 277 299 302 272 261 261 263 269 274 268 269 284 297 298 299 301 300 301 296 294 293 294 292 290 292
212 203 200 199 202 203 209 211 206 203 204 202 202 196 190 196 207 215 250 278 288 287 277 264 255 261 268 265 276 291 294 295 296 298 298 299 298 297 294 290 286 285 287
228 220 211 210 211 211 212 212 210 213 209 209 212 215 214 215 205 213 235 267 279 287 284 269 251 254 264 260 278 289 291 295 296 295 294 295 294 295 292 287 287 287 287
223 224 219 218 219 214 213 209 213 217 215 215 223 222 223 222 211 214 214 230 281 286 278 269 267 251 259 271 284 290 290 290 292 292 291 291 288 288 288 287 287 287 287
217 213 217 220 221 218 216 206 215 219 217 222 227 229 231 225 221 227 222 212 225 269 277 268 266 265 266 279 289 290 288 291 291 290 290 291 289 286 285 286 288 288 287
206 208 217 219 221 224 222 211 221 221 221 230 230 232 238 237 226 225 227 233 231 242 266 266 260 279 284 285 288 291 289 292 290 290 289 290 289 286 285 286 287 288 286
215 213 220 223 226 232 224 218 225 222 229 239 240 236 242 237 237 237 231 231 237 239 260 278 274 282 278 279 296 294 291 288 289 286 288 290 288 286 285 286 288 290 290
231 230 229 233 236 238 230 224 227 225 229 239 243 242 247 244 241 242 239 240 242 238 246 270 281 274 268 276 287 293 294 292 289 287 285 288 286 285 286 288 289 291 293
250 249 233 238 247 245 238 237 229 229 233 238 240 241 247 243 249 251 247 249 253 255 250 256 274 278 277 282 296 295 290 290 290 290 288 285 286 286 287 287 289 291 291
257 263 258 252 253 252 248 243 238 236 237 245 246 244 247 242 246 248 249 251 258 261 263 264 271 276 277 278 278 285 297 297 296 294 290 290 288 288 287 288 287 285 283
278 269 272 273 272 264 255 246 241 237 238 247 252 253 256 258 263 258 251 248 241 247 254 260 268 275 275 282 274 277 287 300 296 275 294 295 294 289 287 285 281 279 280
321 301 282 278 273 275 286 277 268 251 248 247 258 267 268 262 272 277 275 269 256 245 244 248 261 265 271 272 279 279 286 295 287 266 281 287 279 274 274 275 280 281 281
327 316 310 305 297 293 299 293 286 268 255 254 256 263 277 276 261 261 270 274 269 267 257 250 252 258 263 262 265 270 268 272 271 275 278 276 273 270 273 275 281 280 280
301 306 314 312 310 306 306 300 300 279 266 267 263 258 263 270 266 267 265 268 271 272 269 264 257 262 265 261 250 256 263 273 282 274 256 264 275 274 281 278 279 278 278
318 317 316 313 309 309 311 307 306 289 283 286 286 279 272 271 282 284 275 274 281 286 294 288 285 284 283 277 267 265 271 283 280 270 257 265 280 295 288 273 275 280 283
308 320 322 321 307 303 309 313 317 299 279 286 294 292 289 287 291 290 268 264 268 277 287 297 295 298 293 285 280 256 244 265 279 270 253 267 278 308 300 281 277 294 292